This is the latest recevied weather packets stored in our database for station/object DO7ZT-13. If no packets are shown the sender has not sent any weather packets the latest 10 day(s).
| Time | Temp. | Humidity | Pressure | Rain* | Wind** | Luminosity | Snow |
|---|---|---|---|---|---|---|---|
| 1777865720 | 16.11° C | 48% | 1013.1 hPa | 0 mm | 1.34 m/s, 207° | - | - |
| 1777865407 | 16.11° C | 48% | 1013.1 hPa | 0 mm | 1.34 m/s, 224° | - | - |
| 1777865119 | 16.11° C | 48% | 1013.1 hPa | 0 mm | 0.89 m/s, 262° | - | - |
| 1777864807 | 16.11° C | 49% | 1013.1 hPa | 0 mm | 0.89 m/s, 186° | - | - |
| 1777864520 | 16.11° C | 49% | 1013.1 hPa | 0 mm | 0.89 m/s, 165° | - | - |
| 1777864207 | 16.11° C | 48% | 1013.1 hPa | 0 mm | 0.45 m/s, 138° | - | - |
| 1777863920 | 16.11° C | 48% | 1013.1 hPa | 0 mm | 2.24 m/s, 199° | - | - |
| 1777863607 | 16.11° C | 48% | 1013 hPa | 0 mm | 1.34 m/s, 213° | - | - |
| 1777863320 | 16.11° C | 48% | 1013 hPa | 0 mm | 1.34 m/s, 165° | - | - |
| 1777863007 | 16.11° C | 48% | 1013 hPa | 0 mm | 1.34 m/s, 140° | - | - |
| 1777862720 | 16.11° C | 48% | 1012.9 hPa | 0 mm | 0.89 m/s, 177° | - | - |
| 1777862407 | 16.11° C | 48% | 1012.9 hPa | 0 mm | 0.89 m/s, 270° | - | - |
| 1777862119 | 16.11° C | 47% | 1012.9 hPa | 0 mm | 0.89 m/s, 162° | - | - |
| 1777861807 | 16.11° C | 47% | 1012.7 hPa | 0 mm | 0.89 m/s, 162° | - | - |
| 1777861519 | 16.11° C | 47% | 1012.7 hPa | 0 mm | 1.34 m/s, 150° | - | - |
| 1777861207 | 16.11° C | 47% | 1012.7 hPa | 0 mm | 2.24 m/s, 216° | - | - |
| 1777860920 | 16.11° C | 47% | 1012.7 hPa | 0 mm | 1.34 m/s, 166° | - | - |
| 1777860607 | 16.11° C | 47% | 1012.7 hPa | 0 mm | 1.34 m/s, 186° | - | - |
| 1777860319 | 16.11° C | 47% | 1012.7 hPa | 0 mm | 1.79 m/s, 184° | - | - |
| 1777860008 | 16.11° C | 47% | 1012.7 hPa | 0 mm | 0.89 m/s, 180° | - | - |
| 1777859732 | 16.11° C | 47% | 1012.7 hPa | 0 mm | 1.34 m/s, 194° | - | - |
| 1777859420 | 16.11° C | 47% | 1012.7 hPa | 0 mm | 1.34 m/s, 190° | - | - |
| 1777859107 | 16.11° C | 47% | 1012.5 hPa | 0 mm | 1.34 m/s, 174° | - | - |
| 1777858820 | 16.11° C | 47% | 1012.5 hPa | 0 mm | 0.89 m/s, 180° | - | - |
| 1777858507 | 16.11° C | 46% | 1012.5 hPa | 0 mm | 1.34 m/s, 198° | - | - |
* Rain latest hour (hover to see other rain measurements)
** Current wind speed in m/s (hover to see current wind gust speed)